| time (UTC) | temp F | wind direction | speed knots | gust knots | rain 1hr in | rain 24hr in | rain mn in | humidity % | barometer mb |
| 20260505172904 | 62 | 277 | 5.2 | 17.4 | 0.00 | 0.00 | 0.00 | 65 | 1007.8 |
| 20260505172402 | 62 | 241 | 0.9 | 6.1 | 0.00 | 0.00 | 0.00 | 67 | 1006.9 |
| 20260505171903 | 63 | 322 | 0.9 | 4.3 | 0.00 | 0.00 | 0.00 | 67 | 1006.5 |
| 20260505171403 | 63 | 326 | 1.7 | 5.2 | 0.00 | 0.00 | 0.00 | 67 | 1006.5 |
| 20260505170904 | 63 | 352 | 1.7 | 5.2 | 0.00 | 0.00 | 0.00 | 67 | 1006.4 |
| 20260505170359 | 63 | 331 | 0.9 | 3.5 | 0.00 | 0.00 | 0.00 | 67 | 1006.4 |
| 20260505165852 | 64 | 332 | 0.9 | 4.3 | 0.00 | 0.00 | 0.00 | 67 | 1006.3 |
| 20260505164848 | 64 | 347 | 1.7 | 4.3 | 0.00 | 0.00 | 0.00 | 66 | 1006.4 |
| 20260505164348 | 64 | 28 | 1.7 | 7.0 | 0.00 | 0.00 | 0.00 | 67 | 1006.4 |
| 20260505163842 | 64 | 51 | 1.7 | 7.0 | 0.00 | 0.00 | 0.00 | 67 | 1006.4 |
| 20260505163551 | 64 | 44 | 2.6 | 7.8 | 0.00 | 0.00 | 0.00 | 67 | 1006.6 |
| 20260505163415 | 64 | 35 | 1.7 | 7.8 | 0.00 | 0.00 | 0.00 | 68 | 1006.5 |
| 20260505162342 | 64 | 1 | 2.6 | 7.8 | 0.00 | 0.00 | 0.00 | 66 | 1006.7 |
| 20260505161938 | 65 | 30 | 4.3 | 13.0 | 0.00 | 0.00 | 0.00 | 66 | 1006.8 |
| 20260505161903 | 64 | 37 | 4.3 | 10.4 | 0.00 | 0.00 | 0.00 | 66 | 1006.7 |
| 20260505161526 | 65 | 56 | 5.2 | 13.0 | 0.00 | 0.00 | 0.00 | 66 | 1006.7 |
| 20260505160410 | 65 | 22 | 4.3 | 11.3 | 0.00 | 0.00 | 0.00 | 66 | 1006.8 |
| 20260505153335 | 65 | 16 | 2.6 | 7.0 | 0.00 | 0.00 | 0.00 | 67 | 1006.9 |
| 20260505152833 | 65 | 77 | 3.5 | 6.1 | 0.00 | 0.00 | 0.00 | 67 | 1007.0 |
| 20260505152328 | 65 | 48 | 3.5 | 7.8 | 0.00 | 0.00 | 0.00 | 68 | 1007.1 |
| 20260505152052 | 65 | 39 | 1.7 | 7.8 | 0.00 | 0.00 | 0.00 | 68 | 1007.1 |
| 20260505151901 | 65 | 18 | 2.6 | 7.8 | 0.00 | 0.00 | 0.00 | 68 | 1007.1 |
| 20260505151119 | 65 | 44 | 3.5 | 10.4 | 0.00 | 0.00 | 0.00 | 66 | 1007.2 |
| 20260505150907 | 65 | 342 | 3.5 | 10.4 | 0.00 | 0.00 | 0.00 | 67 | 1007.2 |
| 20260505140310 | 66 | 338 | 1.7 | 7.8 | 0.00 | 0.00 | 0.00 | 62 | 1007.4 |
| 20260505124809 | 68 | 332 | 2.6 | 12.2 | 0.00 | 0.00 | 0.00 | 58 | 1008.0 |
| 20260505124433 | 68 | 313 | 3.5 | 9.6 | 0.00 | 0.00 | 0.00 | 58 | 1008.0 |
| 20260505124334 | 69 | 338 | 2.6 | 8.7 | 0.00 | 0.00 | 0.00 | 59 | 1008.0 |
| 20260505123302 | 67 | 328 | 4.3 | 9.6 | 0.00 | 0.00 | 0.00 | 58 | 1008.0 |
| 20260505122803 | 67 | 320 | 3.5 | 8.7 | 0.00 | 0.00 | 0.00 | 58 | 1008.0 |
| 20260505122305 | 67 | 335 | 3.5 | 7.8 | 0.00 | 0.00 | 0.00 | 59 | 1008.0 |
| 20260505121802 | 67 | 326 | 3.5 | 11.3 | 0.00 | 0.00 | 0.00 | 59 | 1008.1 |
| 20260505121301 | 67 | 333 | 3.5 | 11.3 | 0.00 | 0.00 | 0.00 | 59 | 1008.1 |
| 20260505120802 | 68 | 13 | 2.6 | 9.6 | 0.00 | 0.00 | 0.00 | 59 | 1008.1 |
| 20260505120310 | 68 | 318 | 2.6 | 11.3 | 0.00 | 0.00 | 0.00 | 60 | 1008.1 |
| 20260505115802 | 68 | 2 | 4.3 | 11.3 | 0.00 | 0.00 | 0.00 | 58 | 1008.2 |
| 20260505115556 | 69 | 330 | 5.2 | 11.3 | 0.00 | 0.00 | 0.00 | 57 | 1008.2 |
| 20260505115346 | 68 | 326 | 6.1 | 11.3 | 0.00 | 0.00 | 0.00 | 57 | 1008.1 |
| 20260505114303 | 69 | 317 | 3.5 | 10.4 | 0.00 | 0.00 | 0.00 | 57 | 1008.2 |
| 20260505113801 | 70 | 323 | 1.7 | 6.1 | 0.00 | 0.00 | 0.00 | 56 | 1008.3 |
| 20260505113302 | 69 | 43 | 1.7 | 6.1 | 0.00 | 0.00 | 0.00 | 52 | 1008.2 |
| 20260505112758 | 69 | 42 | 2.6 | 7.0 | 0.00 | 0.00 | 0.00 | 51 | 1008.3 |
| 20260505112258 | 69 | 49 | 1.7 | 7.0 | 0.00 | 0.00 | 0.00 | 54 | 1008.4 |
| 20260505111803 | 68 | 22 | 0.9 | 4.3 | 0.00 | 0.00 | 0.00 | 56 | 1008.4 |
| 20260505111256 | 68 | 348 | 1.7 | 5.2 | 0.00 | 0.00 | 0.00 | 58 | 1008.4 |
| 20260505110757 | 67 | 32 | 1.7 | 8.7 | 0.00 | 0.00 | 0.00 | 59 | 1008.4 |
| 20260505110257 | 67 | 29 | 2.6 | 8.7 | 0.00 | 0.00 | 0.00 | 58 | 1008.4 |
| 20260505110230 | 68 | 351 | 2.6 | 7.8 | 0.00 | 0.00 | 0.00 | 59 | 1008.5 |
| 20260505101236 | 68 | 89 | 3.5 | 6.1 | 0.00 | 0.00 | 0.00 | 55 | 1008.9 |
| 20260505100736 | 67 | 44 | 3.5 | 7.0 | 0.00 | 0.00 | 0.00 | 56 | 1008.9 |
| 20260505100233 | 67 | 108 | 4.3 | 7.8 | 0.00 | 0.00 | 0.00 | 57 | 1009.0 |
| 20260505095731 | 67 | 76 | 4.3 | 9.6 | 0.00 | 0.00 | 0.00 | 57 | 1009.1 |
| 20260505095232 | 67 | 69 | 3.5 | 9.6 | 0.00 | 0.00 | 0.00 | 59 | 1009.0 |
| 20260505094735 | 67 | 80 | 1.7 | 7.0 | 0.00 | 0.00 | 0.00 | 58 | 1009.1 |
| 20260505094233 | 67 | 31 | 2.6 | 5.2 | 0.00 | 0.00 | 0.00 | 61 | 1009.1 |
| 20260505093729 | 66 | 94 | 3.5 | 7.0 | 0.00 | 0.00 | 0.00 | 58 | 1009.2 |
| 20260505093229 | 66 | 100 | 3.5 | 7.8 | 0.00 | 0.00 | 0.00 | 60 | 1009.3 |
| 20260505092734 | 66 | 106 | 2.6 | 7.8 | 0.00 | 0.00 | 0.00 | 60 | 1009.3 |
| 20260505092236 | 66 | 62 | 2.6 | 7.8 | 0.00 | 0.00 | 0.00 | 60 | 1009.3 |
| 20260505091729 | 66 | 70 | 2.6 | 7.8 | 0.00 | 0.00 | 0.00 | 61 | 1009.4 |
| 20260505091232 | 65 | 99 | 2.6 | 7.8 | 0.00 | 0.00 | 0.00 | 62 | 1009.4 |
| 20260505090734 | 65 | 90 | 2.6 | 7.0 | 0.00 | 0.00 | 0.00 | 61 | 1009.5 |
| 20260505090317 | 65 | 92 | 3.5 | 7.8 | 0.00 | 0.00 | 0.00 | 62 | 1009.5 |
| 20260505085936 | 65 | 64 | 3.5 | 7.8 | 0.00 | 0.00 | 0.00 | 63 | 1009.7 |
| 20260505085333 | 65 | 91 | 2.6 | 6.1 | 0.00 | 0.00 | 0.00 | 63 | 1009.8 |
| 20260505084218 | 64 | 124 | 1.7 | 4.3 | 0.00 | 0.00 | 0.00 | 67 | 1009.9 |
| 20260505083716 | 63 | 96 | 0.9 | 3.5 | 0.00 | 0.00 | 0.00 | 69 | 1009.8 |
| 20260505083216 | 63 | 145 | 1.7 | 4.3 | 0.00 | 0.00 | 0.00 | 69 | 1009.9 |
| 20260505082713 | 63 | 113 | 2.6 | 5.2 | 0.00 | 0.00 | 0.00 | 68 | 1009.9 |
| 20260505082216 | 63 | 80 | 2.6 | 5.2 | 0.00 | 0.00 | 0.00 | 70 | 1009.9 |
| 20260505081713 | 62 | 124 | 2.6 | 6.1 | 0.00 | 0.00 | 0.00 | 71 | 1009.9 |
| 20260505081216 | 62 | 146 | 1.7 | 6.1 | 0.00 | 0.00 | 0.00 | 70 | 1010.0 |
| 20260505080713 | 62 | 114 | 1.7 | 3.5 | 0.00 | 0.00 | 0.00 | 72 | 1010.0 |
| 20260505080207 | 61 | 58 | 1.7 | 3.5 | 0.00 | 0.00 | 0.00 | 73 | 1010.1 |
| 20260505075706 | 61 | 90 | 1.7 | 3.5 | 0.00 | 0.00 | 0.00 | 73 | 1010.1 |
| 20260505075207 | 62 | 62 | 0.9 | 3.5 | 0.00 | 0.00 | 0.00 | 73 | 1010.1 |
| 20260505074706 | 61 | 347 | 0.9 | 3.5 | 0.00 | 0.00 | 0.00 | 73 | 1010.2 |
| 20260505073713 | 60 | 61 | 1.7 | 5.2 | 0.00 | 0.00 | 0.00 | 77 | 1010.2 |
| 20260505073207 | 60 | 317 | 0.9 | 3.5 | 0.00 | 0.00 | 0.00 | 75 | 1010.2 |
| 20260505072709 | 60 | 329 | 1.7 | 4.3 | 0.00 | 0.00 | 0.00 | 78 | 1010.3 |
| 20260505072214 | 59 | 305 | 0.9 | 4.3 | 0.00 | 0.00 | 0.00 | 78 | 1010.4 |
| 20260505071702 | 59 | 18 | 0.9 | 4.3 | 0.00 | 0.00 | 0.00 | 80 | 1010.4 |
| 20260505071205 | 58 | 331 | 1.7 | 5.2 | 0.00 | 0.00 | 0.00 | 80 | 1010.4 |
| 20260505070659 | 58 | 326 | 2.6 | 5.2 | 0.00 | 0.00 | 0.00 | 80 | 1010.4 |
| 20260505070158 | 57 | 307 | 1.7 | 3.5 | 0.00 | 0.00 | 0.00 | 81 | 1010.5 |
| 20260505065651 | 57 | 326 | 0.9 | 3.5 | 0.00 | 0.00 | 0.00 | 81 | 1010.5 |
| 20260505065252 | 57 | 331 | 1.7 | 4.3 | 0.00 | 0.00 | 0.00 | 81 | 1010.5 |
| 20260505065204 | 57 | 331 | 0.9 | 3.5 | 0.00 | 0.00 | 0.00 | 81 | 1010.4 |
| 20260505064145 | 57 | 328 | 1.7 | 4.3 | 0.00 | 0.00 | 0.00 | 81 | 1010.5 |
| 20260505063644 | 56 | 327 | 0.9 | 4.3 | 0.00 | 0.00 | 0.00 | 81 | 1010.6 |
| 20260505063143 | 57 | 335 | 0.9 | 3.5 | 0.00 | 0.00 | 0.00 | 82 | 1010.6 |
| 20260505062648 | 56 | 328 | 0.9 | 4.3 | 0.00 | 0.00 | 0.00 | 82 | 1010.6 |
| 20260505062145 | 56 | 67 | 0.9 | 4.3 | 0.00 | 0.00 | 0.00 | 82 | 1010.7 |
| 20260505061643 | 56 | 325 | 0.9 | 4.3 | 0.00 | 0.00 | 0.00 | 83 | 1010.7 |
| 20260505061531 | 56 | 336 | 0.9 | 3.5 | 0.00 | 0.00 | 0.00 | 83 | 1010.7 |
| 20260505061524 | 56 | 333 | 0.9 | 4.3 | 0.00 | 0.00 | 0.00 | 83 | 1010.8 |
| 20260505061449 | 56 | 253 | 0.9 | 4.3 | 0.00 | 0.00 | 0.00 | 82 | 1010.8 |
| 20260505061307 | 56 | 21 | 0.0 | 2.6 | 0.00 | 0.00 | 0.00 | 82 | 1010.7 |
| 20260505054907 | 56 | 328 | 0.9 | 4.3 | 0.00 | 0.00 | 0.00 | 82 | 1010.7 |
| 20260505053129 | 55 | 286 | 0.9 | 5.2 | 0.00 | 0.00 | 0.00 | 84 | 1010.6 |
| 20260505052630 | 55 | 325 | 0.9 | 6.1 | 0.00 | 0.00 | 0.00 | 85 | 1010.6 |
| 20260505052132 | 55 | 323 | 1.7 | 6.1 | 0.00 | 0.00 | 0.00 | 84 | 1010.6 |
| 20260505051630 | 55 | 17 | 0.9 | 5.2 | 0.00 | 0.00 | 0.00 | 84 | 1010.5 |
| 20260505051130 | 55 | 333 | 0.9 | 2.6 | 0.00 | 0.00 | 0.00 | 85 | 1010.6 |
| 20260505050619 | 55 | 327 | 0.0 | 4.3 | 0.00 | 0.00 | 0.00 | 85 | 1010.6 |
| 20260505050114 | 54 | 326 | 0.0 | 4.3 | 0.00 | 0.00 | 0.00 | 86 | 1010.6 |
| 20260505041108 | 54 | 321 | 6.1 | 10.4 | 0.00 | 0.00 | 0.00 | 84 | 1010.7 |
| 20260505040755 | 54 | 326 | 7.0 | 11.3 | 0.00 | 0.00 | 0.00 | 84 | 1010.8 |
| 20260505040637 | 54 | 324 | 7.0 | 11.3 | 0.00 | 0.00 | 0.00 | 84 | 1010.8 |
| 20260505035604 | 54 | 315 | 6.1 | 12.2 | 0.00 | 0.00 | 0.00 | 84 | 1010.8 |
| 20260505035107 | 54 | 333 | 5.2 | 12.2 | 0.00 | 0.00 | 0.00 | 84 | 1010.8 |
| 20260505034601 | 54 | 331 | 4.3 | 11.3 | 0.00 | 0.00 | 0.00 | 84 | 1010.8 |
| 20260505034237 | 54 | 335 | 3.5 | 8.7 | 0.00 | 0.00 | 0.00 | 83 | 1011.0 |
| 20260505034137 | 54 | 333 | 3.5 | 8.7 | 0.00 | 0.00 | 0.00 | 84 | 1010.9 |
| 20260505033103 | 55 | 323 | 2.6 | 7.8 | 0.00 | 0.00 | 0.00 | 83 | 1011.1 |
| 20260505032603 | 55 | 317 | 3.5 | 8.7 | 0.00 | 0.00 | 0.00 | 82 | 1011.0 |
| 20260505032101 | 55 | 330 | 4.3 | 9.6 | 0.00 | 0.00 | 0.00 | 82 | 1011.0 |
| 20260505031602 | 55 | 326 | 5.2 | 10.4 | 0.00 | 0.00 | 0.00 | 82 | 1011.0 |
| 20260505031105 | 55 | 325 | 6.1 | 11.3 | 0.00 | 0.00 | 0.00 | 81 | 1011.0 |
| 20260505030605 | 55 | 319 | 7.0 | 11.3 | 0.00 | 0.00 | 0.00 | 81 | 1011.0 |
| 20260505030111 | 55 | 334 | 6.1 | 11.3 | 0.00 | 0.00 | 0.00 | 81 | 1011.0 |
| 20260505025817 | 55 | 322 | 7.0 | 10.4 | 0.00 | 0.00 | 0.00 | 81 | 1011.1 |
| 20260505025654 | 55 | 328 | 6.1 | 11.3 | 0.00 | 0.00 | 0.00 | 81 | 1011.1 |
| 20260505024728 | 55 | 325 | 7.0 | 10.4 | 0.00 | 0.00 | 0.00 | 80 | 1011.1 |
| 20260505024145 | 55 | 322 | 7.0 | 11.3 | 0.00 | 0.00 | 0.00 | 80 | 1011.1 |
| 20260505023803 | 55 | 326 | 7.0 | 11.3 | 0.00 | 0.00 | 0.00 | 80 | 1011.2 |
| 20260505022636 | 55 | 320 | 6.1 | 11.3 | 0.00 | 0.00 | 0.00 | 81 | 1011.2 |
| 20260505021602 | 56 | 317 | 6.1 | 11.3 | 0.00 | 0.00 | 0.00 | 80 | 1011.3 |
| 20260505021331 | 56 | 331 | 5.2 | 9.6 | 0.00 | 0.00 | 0.00 | 80 | 1011.5 |
| 20260505021150 | 56 | 321 | 6.1 | 10.4 | 0.00 | 0.00 | 0.00 | 80 | 1011.4 |
| 20260505020107 | 56 | 323 | 4.3 | 9.6 | 0.00 | 0.00 | 0.00 | 80 | 1011.6 |
| 20260505015743 | 56 | 324 | 5.2 | 8.7 | 0.00 | 0.00 | 0.00 | 80 | 1011.4 |
| 20260505015633 | 56 | 317 | 4.3 | 8.7 | 0.00 | 0.00 | 0.00 | 80 | 1011.5 |
| 20260505014604 | 56 | 317 | 4.3 | 8.7 | 0.00 | 0.00 | 0.00 | 80 | 1011.4 |
| 20260505014557 | 56 | 305 | 1.7 | 4.3 | 0.00 | 0.00 | 0.00 | 79 | 1011.6 |
| 20260505014552 | 56 | 329 | 0.9 | 4.3 | 0.00 | 0.00 | 0.00 | 79 | 1011.7 |
| 20260505014211 | 56 | 326 | 1.7 | 7.0 | 0.00 | 0.00 | 0.00 | 80 | 1011.5 |
| 20260505012602 | 57 | 315 | 0.0 | 4.3 | 0.00 | 0.00 | 0.00 | 78 | 1011.8 |
| 20260505012103 | 57 | 327 | 0.0 | 1.7 | 0.00 | 0.00 | 0.00 | 77 | 1011.8 |
| 20260505011559 | 57 | 327 | 0.0 | 2.6 | 0.00 | 0.00 | 0.00 | 77 | 1011.9 |
| 20260505011102 | 57 | 327 | 0.9 | 6.1 | 0.00 | 0.00 | 0.00 | 77 | 1011.9 |
| 20260505010558 | 57 | 326 | 2.6 | 7.8 | 0.00 | 0.00 | 0.00 | 77 | 1011.8 |
| 20260505010337 | 57 | 322 | 1.7 | 6.1 | 0.00 | 0.00 | 0.00 | 77 | 1011.8 |
| 20260505010151 | 57 | 328 | 2.6 | 7.8 | 0.00 | 0.00 | 0.00 | 77 | 1011.7 |
| 20260505005227 | 58 | 324 | 4.3 | 7.8 | 0.00 | 0.00 | 0.00 | 76 | 1011.9 |
| 20260505004306 | 58 | 320 | 5.2 | 9.6 | 0.00 | 0.00 | 0.00 | 76 | 1011.8 |
| 20260505004139 | 58 | 331 | 4.3 | 8.7 | 0.00 | 0.00 | 0.00 | 76 | 1011.8 |
| 20260505003417 | 58 | 340 | 5.2 | 10.4 | 0.00 | 0.00 | 0.00 | 75 | 1011.9 |
| 20260505003131 | 58 | 332 | 5.2 | 10.4 | 0.00 | 0.00 | 0.00 | 75 | 1011.8 |
| 20260505002054 | 58 | 319 | 4.3 | 9.6 | 0.00 | 0.00 | 0.00 | 75 | 1011.9 |
| 20260505001550 | 58 | 336 | 4.3 | 9.6 | 0.00 | 0.00 | 0.00 | 75 | 1012.0 |
| 20260505001049 | 58 | 334 | 4.3 | 8.7 | 0.00 | 0.00 | 0.00 | 75 | 1012.1 |
| 20260505000548 | 58 | 339 | 2.6 | 7.8 | 0.00 | 0.00 | 0.00 | 75 | 1012.1 |
| 20260505000058 | 58 | 329 | 1.7 | 7.0 | 0.00 | 0.00 | 0.00 | 75 | 1012.2 |
| 20260504235545 | 58 | 330 | 1.7 | 6.1 | 0.00 | 0.00 | 0.00 | 75 | 1012.2 |
| 20260504235046 | 58 | 317 | 1.7 | 6.1 | 0.00 | 0.00 | 0.00 | 74 | 1012.3 |
| 20260504234544 | 58 | 329 | 0.9 | 4.3 | 0.00 | 0.00 | 0.00 | 74 | 1012.2 |
| 20260504232151 | 59 | 309 | 0.0 | 0.9 | 0.00 | 0.00 | 0.00 | 72 | 1012.4 |
| 20260504232142 | 59 | 309 | 0.0 | 1.7 | 0.00 | 0.00 | 0.00 | 72 | 1012.4 |
| 20260504230536 | 59 | 309 | 0.9 | 2.6 | 0.00 | 0.00 | 0.00 | 73 | 1012.5 |
| 20260504230037 | 58 | 323 | 0.9 | 3.5 | 0.00 | 0.00 | 0.00 | 73 | 1012.6 |
| 20260504225534 | 58 | 302 | 0.0 | 3.5 | 0.00 | 0.00 | 0.00 | 73 | 1012.5 |
| 20260504225034 | 58 | 347 | 0.0 | 2.6 | 0.00 | 0.00 | 0.00 | 73 | 1012.6 |
| 20260504224535 | 59 | 2 | 0.0 | 1.7 | 0.00 | 0.00 | 0.00 | 72 | 1012.6 |
| 20260504224030 | 59 | 2 | 0.9 | 2.6 | 0.00 | 0.00 | 0.00 | 71 | 1012.6 |
| 20260504223524 | 59 | 325 | 1.7 | 5.2 | 0.00 | 0.00 | 0.00 | 71 | 1012.6 |
| 20260504223302 | 60 | 338 | 0.9 | 4.3 | 0.00 | 0.00 | 0.00 | 69 | 1012.7 |
| 20260504223250 | 60 | 301 | 0.0 | 4.3 | 0.00 | 0.00 | 0.00 | 69 | 1012.7 |
| 20260504223102 | 60 | 285 | 1.7 | 5.2 | 0.00 | 0.00 | 0.00 | 70 | 1012.6 |
| 20260504221501 | 60 | 319 | 0.0 | 2.6 | 0.00 | 0.00 | 0.00 | 69 | 1012.7 |
| 20260504220956 | 60 | 319 | 0.9 | 3.5 | 0.00 | 0.00 | 0.00 | 68 | 1012.8 |
| 20260504220450 | 60 | 319 | 0.9 | 5.2 | 0.00 | 0.00 | 0.00 | 68 | 1012.7 |
| 20260504215443 | 61 | 288 | 0.9 | 6.1 | 0.00 | 0.00 | 0.00 | 64 | 1012.7 |
| 20260504214941 | 61 | 305 | 0.9 | 4.3 | 0.00 | 0.00 | 0.00 | 63 | 1012.7 |
| 20260504213440 | 61 | 17 | 0.0 | 2.6 | 0.00 | 0.00 | 0.00 | 61 | 1012.8 |
| 20260504212937 | 61 | 324 | 0.0 | 1.7 | 0.00 | 0.00 | 0.00 | 61 | 1012.8 |
| 20260504212441 | 62 | 324 | 0.9 | 4.3 | 0.00 | 0.00 | 0.00 | 60 | 1012.8 |
| 20260504211937 | 62 | 324 | 0.9 | 4.3 | 0.00 | 0.00 | 0.00 | 60 | 1012.8 |
| 20260504211439 | 62 | 331 | 0.0 | 2.6 | 0.00 | 0.00 | 0.00 | 60 | 1012.8 |
| 20260504210934 | 61 | 333 | 0.0 | 1.7 | 0.00 | 0.00 | 0.00 | 61 | 1012.8 |
| 20260504210435 | 62 | 333 | 0.0 | 1.7 | 0.00 | 0.00 | 0.00 | 60 | 1012.9 |
| 20260504205939 | 62 | 333 | 0.0 | 2.6 | 0.00 | 0.00 | 0.00 | 60 | 1012.9 |
| 20260504205552 | 62 | 332 | 0.0 | 1.7 | 0.00 | 0.00 | 0.00 | 60 | 1012.9 |
| 20260504205442 | 62 | 332 | 0.0 | 2.6 | 0.00 | 0.00 | 0.00 | 60 | 1012.9 |
| 20260504204551 | 62 | 331 | 0.9 | 4.3 | 0.00 | 0.00 | 0.00 | 59 | 1012.8 |
| 20260504204459 | 62 | 331 | 0.0 | 2.6 | 0.00 | 0.00 | 0.00 | 60 | 1012.9 |
| 20260504203436 | 63 | 322 | 1.7 | 4.3 | 0.00 | 0.00 | 0.00 | 58 | 1012.8 |
| 20260504202940 | 63 | 329 | 1.7 | 4.3 | 0.00 | 0.00 | 0.00 | 57 | 1012.8 |
| 20260504202435 | 63 | 323 | 1.7 | 3.5 | 0.00 | 0.00 | 0.00 | 57 | 1012.9 |
| 20260504201936 | 63 | 319 | 1.7 | 3.5 | 0.00 | 0.00 | 0.00 | 57 | 1012.9 |
| 20260504201433 | 63 | 315 | 1.7 | 4.3 | 0.00 | 0.00 | 0.00 | 57 | 1012.9 |
| 20260504200931 | 63 | 329 | 1.7 | 4.3 | 0.00 | 0.00 | 0.00 | 57 | 1012.9 |
| 20260504200437 | 63 | 317 | 2.6 | 5.2 | 0.00 | 0.00 | 0.00 | 58 | 1012.9 |
| 20260504195932 | 62 | 325 | 2.6 | 7.0 | 0.00 | 0.00 | 0.00 | 58 | 1012.9 |
| 20260504195433 | 62 | 331 | 3.5 | 7.0 | 0.00 | 0.00 | 0.00 | 59 | 1013.0 |
| 20260504194935 | 62 | 327 | 3.5 | 5.2 | 0.00 | 0.00 | 0.00 | 58 | 1012.9 |
| 20260504194432 | 62 | 324 | 2.6 | 4.3 | 0.00 | 0.00 | 0.00 | 58 | 1012.9 |
| 20260504193933 | 63 | 323 | 2.6 | 4.3 | 0.00 | 0.00 | 0.00 | 58 | 1012.9 |
| 20260504192930 | 63 | 329 | 2.6 | 4.3 | 0.00 | 0.00 | 0.00 | 56 | 1013.0 |
| 20260504192434 | 64 | 328 | 1.7 | 5.2 | 0.00 | 0.00 | 0.00 | 55 | 1013.1 |
| 20260504191932 | 64 | 285 | 0.9 | 5.2 | 0.00 | 0.00 | 0.00 | 55 | 1013.1 |
| 20260504191427 | 64 | 280 | 1.7 | 4.3 | 0.00 | 0.00 | 0.00 | 54 | 1013.1 |
| 20260504190920 | 64 | 288 | 1.7 | 4.3 | 0.00 | 0.00 | 0.00 | 54 | 1013.1 |
| 20260504190415 | 65 | 280 | 2.6 | 5.2 | 0.00 | 0.00 | 0.00 | 54 | 1013.1 |
| 20260504185906 | 65 | 289 | 2.6 | 5.2 | 0.00 | 0.00 | 0.00 | 53 | 1013.0 |
| 20260504185403 | 65 | 328 | 1.7 | 3.5 | 0.00 | 0.00 | 0.00 | 54 | 1013.0 |
| 20260504184900 | 65 | 329 | 1.7 | 3.5 | 0.00 | 0.00 | 0.00 | 53 | 1013.0 |
| 20260504184450 | 65 | 330 | 1.7 | 3.5 | 0.00 | 0.00 | 0.00 | 53 | 1013.1 |
| 20260504183918 | 65 | 326 | 0.9 | 3.5 | 0.00 | 0.00 | 0.00 | 53 | 1013.0 |
| 20260504182356 | 65 | 297 | 1.7 | 4.3 | 0.00 | 0.00 | 0.00 | 53 | 1013.0 |
| 20260504181856 | 65 | 290 | 2.6 | 4.3 | 0.00 | 0.00 | 0.00 | 53 | 1013.0 |
| 20260504181355 | 66 | 279 | 2.6 | 5.2 | 0.00 | 0.00 | 0.00 | 53 | 1013.1 |
| 20260504180854 | 66 | 280 | 2.6 | 5.2 | 0.00 | 0.00 | 0.00 | 52 | 1013.1 |
| 20260504180345 | 66 | 280 | 1.7 | 5.2 | 0.00 | 0.00 | 0.00 | 52 | 1013.0 |
| 20260504175846 | 66 | 314 | 1.7 | 5.2 | 0.00 | 0.00 | 0.00 | 51 | 1012.9 |
| 20260504175344 | 66 | 323 | 2.6 | 5.2 | 0.00 | 0.00 | 0.00 | 52 | 1012.7 |
| 20260504174844 | 66 | 326 | 2.6 | 6.1 | 0.00 | 0.00 | 0.00 | 52 | 1012.7 |
| 20260504174340 | 66 | 331 | 2.6 | 6.1 | 0.00 | 0.00 | 0.00 | 51 | 1012.7 |